| time (UTC) | temp F | wind direction | speed knots | gust knots | rain 1hr in | rain 24hr in | rain mn in | humidity % | barometer mb |
| 20260506080135 | 76 | 180 | 6.1 | 13.9 | 0.00 | 0.00 | 0.00 | 89 | 1009.5 |
| 20260506073115 | 76 | 174 | 11.3 | 13.9 | 0.00 | 0.00 | 0.00 | 89 | 1009.7 |
| 20260506072613 | 76 | 182 | 9.6 | 13.9 | 0.00 | 0.00 | 0.00 | 89 | 1009.7 |
| 20260506072126 | 76 | 171 | 10.4 | 13.9 | 0.00 | 0.00 | 0.00 | 90 | 1009.8 |
| 20260506071622 | 76 | 172 | 10.4 | 12.2 | 0.00 | 0.00 | 0.00 | 89 | 1009.8 |
| 20260506071124 | 76 | 170 | 7.8 | 12.2 | 0.00 | 0.00 | 0.00 | 89 | 1009.8 |
| 20260506070620 | 76 | 174 | 7.8 | 11.3 | 0.00 | 0.00 | 0.00 | 89 | 1010.0 |
| 20260506070133 | 76 | 176 | 9.6 | 12.2 | 0.00 | 0.00 | 0.00 | 89 | 1010.0 |
| 20260506062119 | 76 | 171 | 8.7 | 12.2 | 0.00 | 0.00 | 0.00 | 89 | 1010.0 |
| 20260506061617 | 76 | 175 | 8.7 | 13.0 | 0.00 | 0.00 | 0.00 | 89 | 1010.0 |
| 20260506061130 | 76 | 159 | 11.3 | 13.0 | 0.00 | 0.00 | 0.00 | 89 | 1010.0 |
| 20260506060624 | 76 | 157 | 11.3 | 15.6 | 0.00 | 0.00 | 0.00 | 89 | 1010.2 |
| 20260506060118 | 76 | 155 | 10.4 | 15.6 | 0.00 | 0.00 | 0.00 | 89 | 1010.1 |
| 20260506051125 | 76 | 151 | 9.6 | 13.0 | 0.00 | 0.00 | 0.00 | 88 | 1010.1 |
| 20260506050619 | 76 | 148 | 8.7 | 13.9 | 0.00 | 0.00 | 0.00 | 88 | 1010.1 |
| 20260506050131 | 76 | 162 | 9.6 | 13.9 | 0.00 | 0.00 | 0.00 | 88 | 1010.0 |
| 20260506044709 | 77 | 154 | 8.7 | 16.5 | 0.00 | 0.00 | 0.00 | 88 | 1010.0 |
| 20260506044205 | 77 | 157 | 10.4 | 16.5 | 0.00 | 0.00 | 0.00 | 88 | 1010.0 |
| 20260506043705 | 77 | 163 | 11.3 | 16.5 | 0.00 | 0.00 | 0.00 | 88 | 1010.0 |
| 20260506043114 | 77 | 149 | 12.2 | 18.2 | 0.00 | 0.00 | 0.00 | 88 | 1009.9 |
| 20260506042611 | 77 | 179 | 13.9 | 18.2 | 0.00 | 0.00 | 0.00 | 88 | 1010.0 |
| 20260506042208 | 77 | 174 | 11.3 | 13.9 | 0.00 | 0.00 | 0.00 | 88 | 1010.0 |
| 20260506041704 | 77 | 156 | 11.3 | 15.6 | 0.00 | 0.00 | 0.00 | 88 | 1010.0 |
| 20260506041201 | 77 | 174 | 13.0 | 15.6 | 0.00 | 0.00 | 0.00 | 88 | 1010.0 |
| 20260506040204 | 77 | 162 | 13.0 | 17.4 | 0.00 | 0.00 | 0.00 | 87 | 1009.9 |
| 20260506035700 | 77 | 166 | 13.9 | 17.4 | 0.00 | 0.00 | 0.00 | 87 | 1009.8 |
| 20260506035155 | 77 | 161 | 8.7 | 11.3 | 0.00 | 0.00 | 0.00 | 87 | 1009.8 |
| 20260506034704 | 77 | 163 | 8.7 | 13.0 | 0.00 | 0.00 | 0.00 | 87 | 1009.6 |
| 20260506034205 | 77 | 167 | 10.4 | 13.0 | 0.00 | 0.00 | 0.00 | 87 | 1009.5 |
| 20260506033644 | 78 | 166 | 9.6 | 13.0 | 0.00 | 0.00 | 0.00 | 87 | 1009.5 |
| 20260506033159 | 78 | 155 | 9.6 | 13.9 | 0.00 | 0.00 | 0.00 | 87 | 1009.4 |
| 20260506032655 | 78 | 165 | 10.4 | 13.9 | 0.00 | 0.00 | 0.00 | 87 | 1009.2 |
| 20260506032217 | 78 | 141 | 10.4 | 13.9 | 0.00 | 0.00 | 0.00 | 86 | 1009.0 |
| 20260506031709 | 78 | 157 | 11.3 | 13.9 | 0.00 | 0.00 | 0.00 | 86 | 1008.9 |
| 20260506031206 | 78 | 157 | 11.3 | 17.4 | 0.00 | 0.00 | 0.00 | 86 | 1009.0 |
| 20260506030710 | 78 | 162 | 12.2 | 17.4 | 0.00 | 0.00 | 0.00 | 86 | 1008.9 |
| 20260506030212 | 78 | 158 | 14.8 | 17.4 | 0.00 | 0.00 | 0.00 | 86 | 1008.8 |
| 20260506025711 | 79 | 157 | 13.0 | 16.5 | 0.00 | 0.00 | 0.00 | 85 | 1008.7 |
| 20260506025210 | 79 | 150 | 10.4 | 13.9 | 0.00 | 0.00 | 0.00 | 85 | 1008.7 |
| 20260506024707 | 79 | 155 | 10.4 | 12.2 | 0.00 | 0.00 | 0.00 | 85 | 1008.7 |
| 20260506024145 | 79 | 146 | 10.4 | 12.2 | 0.00 | 0.00 | 0.00 | 85 | 1008.6 |
| 20260506023210 | 79 | 152 | 10.4 | 13.0 | 0.00 | 0.00 | 0.00 | 84 | 1008.4 |
| 20260506022619 | 79 | 147 | 11.3 | 15.6 | 0.00 | 0.00 | 0.00 | 84 | 1008.2 |
| 20260506022144 | 80 | 148 | 12.2 | 15.6 | 0.00 | 0.00 | 0.00 | 83 | 1008.2 |
| 20260506021659 | 80 | 146 | 12.2 | 15.6 | 0.00 | 0.00 | 0.00 | 83 | 1008.1 |
| 20260506021155 | 80 | 145 | 9.6 | 15.6 | 0.00 | 0.00 | 0.00 | 83 | 1008.2 |
| 20260506020650 | 79 | 138 | 6.1 | 7.8 | 0.00 | 0.00 | 0.00 | 83 | 1008.2 |
| 20260506020147 | 80 | 128 | 6.1 | 7.8 | 0.00 | 0.00 | 0.00 | 82 | 1008.0 |
| 20260506015621 | 80 | 103 | 6.1 | 7.8 | 0.00 | 0.00 | 0.00 | 82 | 1008.0 |
| 20260506015124 | 80 | 104 | 5.2 | 7.0 | 0.00 | 0.00 | 0.00 | 82 | 1007.9 |
| 20260506014620 | 80 | 116 | 6.1 | 7.0 | 0.00 | 0.00 | 0.00 | 82 | 1007.8 |
| 20260506014116 | 80 | 114 | 5.2 | 6.1 | 0.00 | 0.00 | 0.00 | 82 | 1007.7 |
| 20260506013617 | 80 | 113 | 4.3 | 6.1 | 0.00 | 0.00 | 0.00 | 82 | 1007.7 |
| 20260506013201 | 80 | 115 | 4.3 | 6.1 | 0.00 | 0.00 | 0.00 | 82 | 1007.6 |
| 20260506012207 | 81 | 127 | 4.3 | 5.2 | 0.00 | 0.00 | 0.00 | 81 | 1007.5 |
| 20260506011656 | 81 | 128 | 4.3 | 5.2 | 0.00 | 0.00 | 0.00 | 81 | 1007.7 |
| 20260506011131 | 81 | 120 | 4.3 | 6.1 | 0.00 | 0.00 | 0.00 | 81 | 1007.7 |
| 20260506010732 | 81 | 126 | 4.3 | 7.0 | 0.00 | 0.00 | 0.00 | 81 | 1007.6 |
| 20260506010204 | 81 | 133 | 5.2 | 7.0 | 0.00 | 0.00 | 0.00 | 81 | 1007.6 |
| 20260506005207 | 81 | 138 | 5.2 | 6.1 | 0.00 | 0.00 | 0.00 | 82 | 1007.6 |
| 20260506004611 | 80 | 133 | 3.5 | 5.2 | 0.00 | 0.00 | 0.00 | 83 | 1007.7 |
| 20260506004211 | 80 | 166 | 2.6 | 3.5 | 0.00 | 0.00 | 0.00 | 83 | 1007.6 |
| 20260506003704 | 80 | 168 | 2.6 | 3.5 | 0.00 | 0.00 | 0.00 | 82 | 1007.6 |
| 20260506002627 | 79 | 168 | 0.0 | 0.9 | 0.00 | 0.00 | 0.00 | 82 | 1007.6 |
| 20260506002122 | 79 | 168 | 0.9 | 0.9 | 0.00 | 0.00 | 0.00 | 82 | 1007.5 |
| 20260506001724 | 79 | 168 | 0.0 | 3.5 | 0.00 | 0.00 | 0.00 | 82 | 1007.5 |
| 20260506001158 | 79 | 168 | 0.9 | 3.5 | 0.00 | 0.00 | 0.00 | 82 | 1007.5 |
| 20260506000652 | 80 | 168 | 1.7 | 4.3 | 0.00 | 0.00 | 0.00 | 82 | 1007.5 |
| 20260506000151 | 80 | 167 | 2.6 | 5.2 | 0.00 | 0.00 | 0.00 | 81 | 1007.4 |
| 20260505235634 | 80 | 168 | 4.3 | 5.2 | 0.00 | 0.00 | 0.00 | 81 | 1007.5 |
| 20260505235125 | 80 | 176 | 3.5 | 6.1 | 0.00 | 0.00 | 0.00 | 81 | 1007.4 |
| 20260505234623 | 80 | 172 | 4.3 | 7.8 | 0.00 | 0.00 | 0.00 | 81 | 1007.4 |
| 20260505234122 | 81 | 162 | 6.1 | 9.6 | 0.00 | 0.00 | 0.00 | 80 | 1007.2 |
| 20260505233644 | 81 | 166 | 7.8 | 9.6 | 0.00 | 0.00 | 0.00 | 80 | 1007.3 |
| 20260505233142 | 80 | 178 | 7.0 | 7.8 | 0.00 | 0.00 | 0.00 | 80 | 1007.3 |
| 20260505232641 | 81 | 172 | 7.0 | 7.8 | 0.00 | 0.00 | 0.00 | 80 | 1007.2 |
| 20260505232137 | 80 | 165 | 4.3 | 6.1 | 0.00 | 0.00 | 0.00 | 80 | 1007.2 |
| 20260505231650 | 81 | 176 | 3.5 | 7.0 | 0.00 | 0.00 | 0.00 | 80 | 1007.2 |
| 20260505231147 | 81 | 182 | 4.3 | 9.6 | 0.00 | 0.00 | 0.00 | 80 | 1007.1 |
| 20260505230649 | 81 | 178 | 7.0 | 10.4 | 0.00 | 0.00 | 0.00 | 80 | 1007.2 |
| 20260505230215 | 81 | 174 | 7.0 | 10.4 | 0.00 | 0.00 | 0.00 | 80 | 1006.9 |
| 20260505225706 | 81 | 162 | 9.6 | 11.3 | 0.00 | 0.00 | 0.00 | 80 | 1007.0 |
| 20260505225203 | 80 | 172 | 8.7 | 11.3 | 0.00 | 0.00 | 0.00 | 80 | 1006.8 |
| 20260505224658 | 81 | 179 | 7.8 | 12.2 | 0.00 | 0.00 | 0.00 | 80 | 1007.1 |
| 20260505224138 | 80 | 149 | 10.4 | 12.2 | 0.00 | 0.00 | 0.00 | 80 | 1006.9 |
| 20260505223617 | 80 | 159 | 9.6 | 10.4 | 0.00 | 0.00 | 0.00 | 80 | 1007.1 |
| 20260505223138 | 81 | 163 | 7.0 | 9.6 | 0.00 | 0.00 | 0.00 | 80 | 1007.2 |
| 20260505222633 | 81 | 187 | 7.0 | 10.4 | 0.00 | 0.00 | 0.00 | 80 | 1007.1 |
| 20260505222148 | 81 | 174 | 8.7 | 12.2 | 0.00 | 0.00 | 0.00 | 80 | 1007.2 |
| 20260505221659 | 80 | 181 | 9.6 | 12.2 | 0.00 | 0.00 | 0.00 | 80 | 1006.9 |
| 20260505221221 | 80 | 185 | 9.6 | 11.3 | 0.00 | 0.00 | 0.00 | 80 | 1007.0 |
| 20260505220119 | 80 | 179 | 6.1 | 11.3 | 0.00 | 0.00 | 0.00 | 81 | 1007.2 |
| 20260505215614 | 80 | 177 | 7.8 | 11.3 | 0.00 | 0.00 | 0.00 | 81 | 1007.2 |
| 20260505215117 | 80 | 174 | 9.6 | 11.3 | 0.00 | 0.00 | 0.00 | 81 | 1007.2 |
| 20260505214613 | 80 | 173 | 9.6 | 11.3 | 0.00 | 0.00 | 0.00 | 81 | 1007.3 |
| 20260505214115 | 79 | 179 | 7.8 | 9.6 | 0.00 | 0.00 | 0.00 | 82 | 1007.3 |
| 20260505213630 | 79 | 175 | 5.2 | 7.8 | 0.00 | 0.00 | 0.00 | 82 | 1007.7 |
| 20260505213144 | 79 | 182 | 6.1 | 9.6 | 0.00 | 0.00 | 0.00 | 82 | 1007.8 |
| 20260505212208 | 79 | 153 | 7.0 | 8.7 | 0.00 | 0.00 | 0.00 | 82 | 1007.8 |
| 20260505211706 | 79 | 193 | 5.2 | 10.4 | 0.00 | 0.00 | 0.00 | 82 | 1007.8 |
| 20260505211203 | 79 | 163 | 8.7 | 10.4 | 0.00 | 0.00 | 0.00 | 82 | 1007.9 |
| 20260505210655 | 79 | 155 | 8.7 | 12.2 | 0.00 | 0.00 | 0.00 | 82 | 1007.9 |
| 20260505210148 | 79 | 147 | 9.6 | 12.2 | 0.00 | 0.00 | 0.00 | 82 | 1008.0 |
| 20260505205642 | 79 | 166 | 8.7 | 11.3 | 0.00 | 0.00 | 0.00 | 83 | 1008.0 |
| 20260505204706 | 79 | 200 | 4.3 | 7.8 | 0.00 | 0.00 | 0.00 | 83 | 1008.1 |
| 20260505204204 | 79 | 179 | 6.1 | 9.6 | 0.00 | 0.00 | 0.00 | 82 | 1008.2 |
| 20260505203641 | 79 | 160 | 7.8 | 9.6 | 0.00 | 0.00 | 0.00 | 82 | 1008.3 |
| 20260505202711 | 79 | 175 | 5.2 | 12.2 | 0.00 | 0.00 | 0.00 | 83 | 1008.7 |
| 20260505202210 | 79 | 199 | 7.0 | 12.2 | 0.00 | 0.00 | 0.00 | 83 | 1008.6 |
| 20260505201702 | 79 | 202 | 6.1 | 9.6 | 0.00 | 0.00 | 0.00 | 83 | 1008.7 |
| 20260505201154 | 78 | 202 | 7.0 | 10.4 | 0.00 | 0.00 | 0.00 | 83 | 1008.8 |
| 20260505200649 | 78 | 172 | 9.6 | 10.4 | 0.00 | 0.00 | 0.00 | 83 | 1008.8 |
| 20260505200139 | 78 | 186 | 7.8 | 10.4 | 0.00 | 0.00 | 0.00 | 83 | 1008.8 |
| 20260505195612 | 78 | 188 | 8.7 | 10.4 | 0.00 | 0.00 | 0.00 | 84 | 1008.8 |
| 20260505195126 | 78 | 175 | 6.1 | 10.4 | 0.00 | 0.00 | 0.00 | 84 | 1008.9 |
| 20260505194624 | 78 | 203 | 7.0 | 11.3 | 0.00 | 0.00 | 0.00 | 84 | 1009.0 |
| 20260505194127 | 78 | 175 | 7.0 | 9.6 | 0.00 | 0.00 | 0.00 | 84 | 1009.1 |
| 20260505193625 | 78 | 197 | 7.8 | 10.4 | 0.00 | 0.00 | 0.00 | 84 | 1009.0 |
| 20260505193125 | 78 | 169 | 5.2 | 10.4 | 0.00 | 0.00 | 0.00 | 84 | 1009.1 |
| 20260505192627 | 78 | 216 | 7.0 | 10.4 | 0.00 | 0.00 | 0.00 | 84 | 1009.3 |
| 20260505192142 | 77 | 215 | 7.0 | 10.4 | 0.00 | 0.00 | 0.00 | 85 | 1009.3 |
| 20260505191210 | 77 | 193 | 8.7 | 13.0 | 0.00 | 0.00 | 0.00 | 85 | 1009.2 |
| 20260505190621 | 77 | 182 | 6.1 | 8.7 | 0.00 | 0.00 | 0.00 | 86 | 1009.2 |
| 20260505190144 | 77 | 178 | 5.2 | 12.2 | 0.00 | 0.00 | 0.00 | 86 | 1009.3 |
| 20260505185657 | 77 | 206 | 5.2 | 12.2 | 0.00 | 0.00 | 0.00 | 86 | 1009.5 |
| 20260505185210 | 76 | 189 | 6.1 | 10.4 | 0.00 | 0.00 | 0.00 | 86 | 1009.7 |
| 20260505184707 | 76 | 163 | 7.8 | 10.4 | 0.00 | 0.00 | 0.00 | 86 | 1009.7 |
| 20260505184115 | 76 | 203 | 6.1 | 8.7 | 0.00 | 0.00 | 0.00 | 86 | 1009.9 |
| 20260505183717 | 76 | 172 | 7.0 | 8.7 | 0.00 | 0.00 | 0.00 | 86 | 1009.9 |
| 20260505183133 | 76 | 181 | 6.1 | 9.6 | 0.00 | 0.00 | 0.00 | 87 | 1010.0 |
| 20260505182634 | 76 | 207 | 7.8 | 9.6 | 0.00 | 0.00 | 0.00 | 86 | 1010.0 |
| 20260505182148 | 76 | 212 | 4.3 | 8.7 | 0.00 | 0.00 | 0.00 | 86 | 1010.0 |
| 20260505181642 | 76 | 222 | 6.1 | 10.4 | 0.00 | 0.00 | 0.00 | 86 | 1010.2 |
| 20260505181122 | 76 | 212 | 8.7 | 10.4 | 0.00 | 0.00 | 0.00 | 86 | 1010.1 |
| 20260505180614 | 76 | 198 | 7.0 | 11.3 | 0.00 | 0.00 | 0.00 | 87 | 1010.1 |
| 20260505180125 | 76 | 213 | 7.8 | 11.3 | 0.00 | 0.00 | 0.00 | 87 | 1010.1 |
| 20260505175645 | 76 | 238 | 5.2 | 7.8 | 0.00 | 0.00 | 0.00 | 87 | 1010.2 |
| 20260505174706 | 75 | 226 | 7.0 | 9.6 | 0.00 | 0.00 | 0.00 | 87 | 1010.2 |
| 20260505174204 | 75 | 247 | 7.0 | 9.6 | 0.00 | 0.00 | 0.00 | 87 | 1010.2 |
| 20260505173659 | 75 | 233 | 6.1 | 12.2 | 0.00 | 0.00 | 0.00 | 88 | 1010.2 |
| 20260505172708 | 75 | 213 | 4.3 | 9.6 | 0.00 | 0.00 | 0.00 | 88 | 1010.3 |
| 20260505172119 | 74 | 213 | 7.0 | 11.3 | 0.00 | 0.00 | 0.00 | 88 | 1010.4 |
| 20260505171725 | 74 | 236 | 7.8 | 11.3 | 0.00 | 0.00 | 0.00 | 89 | 1010.3 |
| 20260505171204 | 74 | 239 | 4.3 | 7.0 | 0.00 | 0.00 | 0.00 | 89 | 1010.3 |
| 20260505170701 | 74 | 204 | 2.6 | 7.0 | 0.00 | 0.00 | 0.00 | 89 | 1010.5 |
| 20260505170131 | 74 | 225 | 6.1 | 11.3 | 0.00 | 0.00 | 0.00 | 89 | 1010.5 |
| 20260505165706 | 74 | 230 | 4.3 | 11.3 | 0.00 | 0.00 | 0.00 | 89 | 1010.6 |
| 20260505165200 | 74 | 224 | 6.1 | 11.3 | 0.00 | 0.00 | 0.00 | 89 | 1010.6 |
| 20260505164657 | 73 | 207 | 8.7 | 11.3 | 0.00 | 0.00 | 0.00 | 89 | 1010.6 |
| 20260505164152 | 73 | 230 | 7.0 | 9.6 | 0.00 | 0.00 | 0.00 | 89 | 1010.5 |
| 20260505163647 | 73 | 206 | 6.1 | 9.6 | 0.00 | 0.00 | 0.00 | 90 | 1010.5 |
| 20260505163121 | 73 | 205 | 7.0 | 12.2 | 0.00 | 0.00 | 0.00 | 90 | 1010.5 |
| 20260505162629 | 73 | 222 | 9.6 | 12.2 | 0.00 | 0.00 | 0.00 | 90 | 1010.4 |
| 20260505162127 | 73 | 224 | 7.8 | 12.2 | 0.00 | 0.00 | 0.00 | 90 | 1010.4 |
| 20260505161624 | 73 | 201 | 7.0 | 10.4 | 0.00 | 0.00 | 0.00 | 90 | 1010.3 |
| 20260505161127 | 73 | 222 | 7.0 | 11.3 | 0.00 | 0.00 | 0.00 | 90 | 1010.3 |
| 20260505160622 | 72 | 206 | 7.0 | 11.3 | 0.00 | 0.00 | 0.00 | 90 | 1010.2 |
| 20260505160120 | 72 | 229 | 7.0 | 13.0 | 0.00 | 0.00 | 0.00 | 90 | 1010.3 |
| 20260505153151 | 72 | 214 | 7.8 | 9.6 | 0.00 | 0.00 | 0.00 | 90 | 1010.3 |
| 20260505152645 | 71 | 199 | 7.0 | 10.4 | 0.00 | 0.00 | 0.00 | 91 | 1010.3 |
| 20260505152125 | 71 | 214 | 7.0 | 10.4 | 0.00 | 0.00 | 0.00 | 91 | 1010.3 |
| 20260505151623 | 71 | 206 | 7.8 | 10.4 | 0.00 | 0.00 | 0.00 | 90 | 1010.2 |
| 20260505151204 | 71 | 223 | 7.0 | 7.8 | 0.00 | 0.00 | 0.00 | 90 | 1010.3 |
| 20260505150613 | 71 | 223 | 4.3 | 7.0 | 0.00 | 0.00 | 0.00 | 91 | 1010.3 |
| 20260505150155 | 71 | 213 | 5.2 | 8.7 | 0.00 | 0.00 | 0.00 | 91 | 1010.3 |
| 20260505140159 | 71 | 218 | 8.7 | 15.6 | 0.00 | 0.00 | 0.00 | 91 | 1010.3 |
| 20260505130157 | 71 | 221 | 12.2 | 16.5 | 0.00 | 0.00 | 0.00 | 91 | 1009.6 |
| 20260505124656 | 71 | 205 | 10.4 | 13.0 | 0.00 | 0.00 | 0.00 | 90 | 1009.6 |
| 20260505124133 | 71 | 203 | 11.3 | 13.0 | 0.00 | 0.00 | 0.00 | 90 | 1009.5 |
| 20260505123653 | 71 | 197 | 8.7 | 12.2 | 0.00 | 0.00 | 0.00 | 90 | 1009.5 |
| 20260505123145 | 71 | 222 | 9.6 | 13.9 | 0.00 | 0.00 | 0.00 | 90 | 1009.4 |
| 20260505122657 | 71 | 210 | 8.7 | 13.9 | 0.00 | 0.00 | 0.00 | 90 | 1009.3 |
| 20260505122148 | 71 | 213 | 9.6 | 13.9 | 0.00 | 0.00 | 0.00 | 90 | 1009.3 |
| 20260505121644 | 71 | 216 | 8.7 | 10.4 | 0.00 | 0.00 | 0.00 | 90 | 1009.1 |
| 20260505121141 | 71 | 205 | 8.7 | 12.2 | 0.00 | 0.00 | 0.00 | 90 | 1009.1 |
| 20260505120624 | 71 | 215 | 8.7 | 13.9 | 0.00 | 0.00 | 0.00 | 90 | 1009.0 |
| 20260505120122 | 71 | 228 | 9.6 | 13.9 | 0.00 | 0.00 | 0.00 | 90 | 1009.1 |
| 20260505115644 | 71 | 211 | 9.6 | 13.9 | 0.00 | 0.00 | 0.00 | 90 | 1009.1 |
| 20260505115208 | 71 | 213 | 9.6 | 13.9 | 0.00 | 0.00 | 0.00 | 90 | 1009.1 |
| 20260505114706 | 71 | 205 | 10.4 | 13.9 | 0.00 | 0.00 | 0.00 | 90 | 1009.0 |
| 20260505114143 | 71 | 219 | 5.2 | 9.6 | 0.00 | 0.00 | 0.00 | 90 | 1009.0 |
| 20260505113639 | 71 | 201 | 7.0 | 10.4 | 0.00 | 0.00 | 0.00 | 90 | 1009.0 |
| 20260505113134 | 71 | 197 | 7.8 | 12.2 | 0.00 | 0.00 | 0.00 | 90 | 1009.0 |
| 20260505112701 | 71 | 220 | 7.8 | 12.2 | 0.00 | 0.00 | 0.00 | 90 | 1009.0 |
| 20260505111615 | 71 | 219 | 10.4 | 15.6 | 0.00 | 0.00 | 0.00 | 90 | 1009.0 |
| 20260505111112 | 71 | 220 | 8.7 | 12.2 | 0.00 | 0.00 | 0.00 | 90 | 1008.8 |
| 20260505110717 | 71 | 207 | 10.4 | 12.2 | 0.00 | 0.00 | 0.00 | 90 | 1008.8 |
| 20260505102145 | 71 | 211 | 9.6 | 13.9 | 0.00 | 0.00 | 0.00 | 90 | 1009.0 |
| 20260505101642 | 71 | 211 | 10.4 | 13.9 | 0.00 | 0.00 | 0.00 | 90 | 1009.0 |
| 20260505101147 | 71 | 198 | 10.4 | 17.4 | 0.00 | 0.00 | 0.00 | 90 | 1009.1 |
| 20260505100210 | 71 | 217 | 9.6 | 17.4 | 0.00 | 0.00 | 0.00 | 90 | 1009.4 |
| 20260505095705 | 71 | 212 | 11.3 | 17.4 | 0.00 | 0.00 | 0.00 | 90 | 1009.2 |
| 20260505095157 | 71 | 212 | 10.4 | 13.9 | 0.00 | 0.00 | 0.00 | 90 | 1009.2 |
| 20260505094653 | 71 | 197 | 8.7 | 16.5 | 0.00 | 0.00 | 0.00 | 90 | 1009.1 |
| 20260505094153 | 71 | 209 | 11.3 | 16.5 | 0.00 | 0.00 | 0.00 | 90 | 1009.2 |
| 20260505093649 | 71 | 205 | 9.6 | 16.5 | 0.00 | 0.00 | 0.00 | 90 | 1009.4 |
| 20260505093145 | 71 | 219 | 11.3 | 16.5 | 0.00 | 0.00 | 0.00 | 90 | 1009.4 |
| 20260505092211 | 71 | 193 | 11.3 | 18.2 | 0.00 | 0.00 | 0.00 | 89 | 1009.3 |
| 20260505091717 | 71 | 193 | 8.7 | 15.6 | 0.00 | 0.00 | 0.00 | 89 | 1009.2 |
| 20260505091154 | 71 | 202 | 9.6 | 15.6 | 0.00 | 0.00 | 0.00 | 89 | 1009.2 |
| 20260505090644 | 71 | 206 | 8.7 | 13.0 | 0.00 | 0.00 | 0.00 | 89 | 1009.4 |
| 20260505090141 | 71 | 201 | 9.6 | 13.0 | 0.00 | 0.00 | 0.00 | 89 | 1009.7 |
| 20260505085643 | 71 | 204 | 8.7 | 13.0 | 0.00 | 0.00 | 0.00 | 89 | 1009.4 |
| 20260505085141 | 71 | 199 | 8.7 | 16.5 | 0.00 | 0.00 | 0.00 | 89 | 1009.4 |
| 20260505084646 | 71 | 203 | 8.7 | 18.2 | 0.00 | 0.00 | 0.00 | 89 | 1009.5 |
| 20260505084149 | 71 | 211 | 10.4 | 18.2 | 0.00 | 0.00 | 0.00 | 89 | 1009.7 |
| 20260505083648 | 71 | 199 | 8.7 | 11.3 | 0.00 | 0.00 | 0.00 | 89 | 1009.7 |
| 20260505083144 | 71 | 197 | 9.6 | 11.3 | 0.00 | 0.00 | 0.00 | 89 | 1009.7 |
| 20260505082640 | 71 | 188 | 7.8 | 12.2 | 0.00 | 0.00 | 0.00 | 89 | 1009.6 |
| 20260505082133 | 71 | 202 | 7.8 | 11.3 | 0.00 | 0.00 | 0.00 | 89 | 1010.0 |
| 20260505081632 | 71 | 201 | 7.8 | 15.6 | 0.00 | 0.00 | 0.00 | 89 | 1009.8 |
| 20260505081113 | 71 | 207 | 9.6 | 15.6 | 0.00 | 0.00 | 0.00 | 89 | 1009.8 |
| 20260505080613 | 71 | 209 | 8.7 | 12.2 | 0.00 | 0.00 | 0.00 | 89 | 1010.0 |